sat.trackr.live / text

‹ back to catalog

SDA_1664

NORAD 65974 · 2025-230A

PAYLOAD ACTIVE UNKNOWN

§ Identity

Operator
Country
US
Launch date
2025-10-15
Launch site
AFWTR
Launch vehicle
Mass (kg)
RCS (m²)

External: N2YO · Heavens-Above · Gunter

§ Orbital elements

Epoch: 2026-05-24T15:36:32.817312Z

Period
104.35 min
Inclination
81.3003°
Eccentricity
0.0001300
Mean motion
13.79935666 rev/d
Perigee alt
963.2 km
Apogee alt
965.1 km
Semi-major
7,342.3 km
B*
1.5674e-4
RAAN
233.9486°
Arg perigee
102.8407°
Mean anomaly
257.2892°
Rev number
3,052

§ Raw data

SDA_16641 65974U 25230A   26144.65037983  .00000174  00000+0  15674-3 0  99982 65974  81.3003 233.9486 0001300 102.8407 257.2892 13.79935666 30529

JSON: /api/v1/satellites/65974 · /tle

For live sub-satellite position, see the globe view (requires WebGL).

§ Visibility from observer

Set your observer location to see the next 7 days of passes ≥ 10°. The values pass through the URL so the page stays shareable.

No JS? Fill the form by hand. The geolocation button needs JavaScript.